When you browse on this site, cookies collect data to enhance your experience and personalize the content and advertising you see.
Visit our Privacy Policy to learn more. By continuing to use the site, you agree to this use of cookies and data.
  • In Spain
  • List of Countries
  • For 7 days
  • Water Temperature
  • Weather Map
  • Weather Widgets
  • user-avatar
    Login

    Hourly Weather Guanare

    Today, 25 May, Monday

    Time Temperature Precipitation Wind Pressure Humidity
    00:00 +26°C° 0 mm 1 mps 741 mmHg 87%
    01:00 +26°C° 0 mm 1 mps 741 mmHg 87%
    02:00 +26°C° 0 mm 1 mps 741 mmHg 87%
    03:00 +26°C° 0 mm 1 mps 741 mmHg 87%
    04:00 +26°C° 0 mm 1 mps 741 mmHg 86%
    05:00 +27°C° 0 mm 1 mps 741 mmHg 84%
    06:00 +27°C° 0 mm 1 mps 742 mmHg 82%
    07:00 +28°C° 0 mm 1 mps 742 mmHg 80%
    08:00 +29°C° 0.3 mm 1 mps 742 mmHg 77%
    09:00 +30°C° 0.3 mm 1 mps 742 mmHg 74%
    10:00 +32°C° 0.3 mm 1 mps 742 mmHg 72%
    11:00 +33°C° 0.6 mm 1 mps 742 mmHg 66%
    12:00 +34°C° 0.6 mm 1 mps 741 mmHg 60%
    13:00 +35°C° 0.6 mm 1 mps 741 mmHg 54%
    14:00 +34°C° 0.5 mm 1 mps 740 mmHg 62%
    15:00 +32°C° 0.5 mm 2 mps 739 mmHg 70%
    16:00 +31°C° 0.5 mm 2 mps 739 mmHg 78%
    17:00 +30°C° 0.5 mm 1 mps 739 mmHg 83%
    18:00 +28°C° 0.5 mm 1 mps 740 mmHg 88%
    19:00 +25°C° 0.5 mm 0 mps 740 mmHg 93%
    20:00 +25°C° 0.8 mm 0 mps 741 mmHg 93%
    21:00 +25°C° 0.8 mm 0 mps 742 mmHg 94%
    22:00 +24°C° 0.8 mm 0 mps 742 mmHg 94%
    23:00 +24°C° 1.5 mm 0 mps 742 mmHg 95%

    Tomorrow, 26 May, Tuesday

    Time Temperature Precipitation Wind Pressure Humidity
    00:00 +24°C° 1.5 mm 0 mps 742 mmHg 95%
    01:00 +24°C° 1.5 mm 0 mps 741 mmHg 95%
    02:00 +24°C° 0.4 mm 0 mps 741 mmHg 95%
    03:00 +24°C° 0.4 mm 0 mps 741 mmHg 95%
    04:00 +24°C° 0.4 mm 0 mps 741 mmHg 95%
    05:00 +24°C° 0.8 mm 0 mps 741 mmHg 94%
    06:00 +27°C° 0.8 mm 1 mps 742 mmHg 93%
    07:00 +27°C° 0.8 mm 1 mps 743 mmHg 92%
    08:00 +28°C° 1.9 mm 1 mps 743 mmHg 90%
    09:00 +29°C° 1.9 mm 1 mps 743 mmHg 88%
    10:00 +30°C° 1.9 mm 2 mps 743 mmHg 85%
    11:00 +30°C° 1.5 mm 2 mps 742 mmHg 82%
    12:00 +31°C° 1.5 mm 1 mps 741 mmHg 78%
    13:00 +31°C° 1.5 mm 1 mps 740 mmHg 75%
    14:00 +31°C° 0.2 mm 1 mps 740 mmHg 73%
    15:00 +31°C° 0.2 mm 1 mps 740 mmHg 72%
    16:00 +31°C° 0.2 mm 1 mps 740 mmHg 70%
    17:00 +30°C° 0.6 mm 1 mps 740 mmHg 78%
    18:00 +28°C° 0.6 mm 1 mps 741 mmHg 86%
    19:00 +26°C° 0.6 mm 1 mps 741 mmHg 93%
    20:00 +26°C° 1.1 mm 1 mps 742 mmHg 95%
    21:00 +26°C° 1.1 mm 1 mps 742 mmHg 96%
    22:00 +25°C° 1.1 mm 1 mps 743 mmHg 97%
    23:00 +25°C° 0.3 mm 1 mps 742 mmHg 97%

    Day after tomorrow, 27 May, Wednesday

    Time Temperature Precipitation Wind Pressure Humidity
    00:00 +25°C° 0.3 mm 1 mps 742 mmHg 97%
    01:00 +25°C° 0.3 mm 1 mps 741 mmHg 98%
    02:00 +25°C° 0.1 mm 1 mps 741 mmHg 98%
    03:00 +25°C° 0.1 mm 1 mps 741 mmHg 98%
    04:00 +25°C° 0.1 mm 1 mps 741 mmHg 98%
    05:00 +25°C° 0 mm 1 mps 742 mmHg 97%
    06:00 +25°C° 0 mm 2 mps 742 mmHg 96%
    07:00 +26°C° 0 mm 2 mps 743 mmHg 95%
    08:00 +27°C° 0.1 mm 2 mps 743 mmHg 89%
    09:00 +28°C° 0.1 mm 2 mps 743 mmHg 83%
    10:00 +29°C° 0.1 mm 2 mps 743 mmHg 77%
    11:00 +30°C° 0.2 mm 2 mps 742 mmHg 74%
    12:00 +31°C° 0.2 mm 2 mps 741 mmHg 71%
    13:00 +32°C° 0.2 mm 2 mps 741 mmHg 67%
    14:00 +31°C° 1 mm 2 mps 740 mmHg 72%
    15:00 +31°C° 1 mm 1 mps 740 mmHg 77%
    16:00 +30°C° 1 mm 1 mps 739 mmHg 83%
    17:00 +29°C° 0.5 mm 1 mps 740 mmHg 87%
    18:00 +28°C° 0.5 mm 1 mps 740 mmHg 91%
    19:00 +26°C° 0.5 mm 1 mps 741 mmHg 95%
    20:00 +24°C° 0 mm 0 mps 741 mmHg 95%
    21:00 +24°C° 0 mm 0 mps 742 mmHg 96%
    22:00 +23°C° 0 mm 0 mps 742 mmHg 96%
    23:00 +23°C° 0.1 mm 0 mps 742 mmHg 96%

    28 May, Thursday

    Time Temperature Precipitation Wind Pressure Humidity
    00:00 +23°C° 0.1 mm 0 mps 741 mmHg 96%
    01:00 +23°C° 0.1 mm 0 mps 741 mmHg 96%
    02:00 +23°C° 0 mm 0 mps 741 mmHg 96%
    03:00 +22°C° 0 mm 0 mps 740 mmHg 96%
    04:00 +22°C° 0 mm 0 mps 740 mmHg 96%
    05:00 +23°C° 0 mm 0 mps 741 mmHg 94%
    06:00 +24°C° 0 mm 0 mps 742 mmHg 92%
    07:00 +24°C° 0 mm 0 mps 742 mmHg 90%
    08:00 +26°C° 0.3 mm 0 mps 742 mmHg 84%
    09:00 +28°C° 0.3 mm 0 mps 742 mmHg 78%
    10:00 +32°C° 0.3 mm 1 mps 742 mmHg 72%
    11:00 +32°C° 0.8 mm 1 mps 742 mmHg 71%
    12:00 +32°C° 0.8 mm 1 mps 741 mmHg 70%
    13:00 +32°C° 0.8 mm 1 mps 740 mmHg 70%
    14:00 +31°C° 1.7 mm 1 mps 740 mmHg 76%
    15:00 +30°C° 1.7 mm 1 mps 740 mmHg 82%
    16:00 +29°C° 1.7 mm 1 mps 739 mmHg 88%
    17:00 +28°C° 1.1 mm 1 mps 740 mmHg 90%
    18:00 +27°C° 1.1 mm 1 mps 740 mmHg 92%
    19:00 +26°C° 1.1 mm 1 mps 741 mmHg 94%
    20:00 +24°C° 0.4 mm 0 mps 741 mmHg 94%
    21:00 +24°C° 0.4 mm 0 mps 742 mmHg 95%
    22:00 +23°C° 0.4 mm 0 mps 742 mmHg 95%
    23:00 +23°C° 0.3 mm 0 mps 742 mmHg 95%

    29 May, Friday

    Time Temperature Precipitation Wind Pressure Humidity
    00:00 +23°C° 0.3 mm 0 mps 741 mmHg 95%
    01:00 +23°C° 0.3 mm 0 mps 741 mmHg 95%
    02:00 +25°C° 0.2 mm 1 mps 741 mmHg 95%
    03:00 +25°C° 0.2 mm 1 mps 741 mmHg 94%
    04:00 +25°C° 0.2 mm 1 mps 741 mmHg 94%
    05:00 +26°C° 0 mm 1 mps 741 mmHg 93%
    06:00 +26°C° 0 mm 1 mps 742 mmHg 91%
    07:00 +25°C° 0 mm 0 mps 742 mmHg 89%
    08:00 +28°C° 0.7 mm 1 mps 742 mmHg 84%
    09:00 +30°C° 0.7 mm 1 mps 742 mmHg 79%
    10:00 +31°C° 0.7 mm 1 mps 742 mmHg 74%
    11:00 +31°C° 1 mm 1 mps 742 mmHg 74%
    12:00 +31°C° 1 mm 1 mps 741 mmHg 74%
    13:00 +31°C° 1 mm 1 mps 740 mmHg 75%
    14:00 +30°C° 0.9 mm 1 mps 740 mmHg 78%
    15:00 +30°C° 0.9 mm 1 mps 740 mmHg 81%
    16:00 +29°C° 0.9 mm 1 mps 739 mmHg 85%
    17:00 +28°C° 0 mm 1 mps 740 mmHg 87%
    18:00 +27°C° 0 mm 1 mps 740 mmHg 89%
    19:00 +26°C° 0 mm 1 mps 740 mmHg 91%
    20:00 +26°C° 0 mm 1 mps 741 mmHg 91%
    21:00 +26°C° 0 mm 1 mps 741 mmHg 91%
    22:00 +25°C° 0 mm 1 mps 742 mmHg 90%
    23:00 +25°C° 0 mm 1 mps 741 mmHg 89%

    30 May, Saturday

    Time Temperature Precipitation Wind Pressure Humidity
    00:00 +25°C° 0 mm 1 mps 741 mmHg 88%
    01:00 +25°C° 0 mm 1 mps 741 mmHg 87%
    02:00 +25°C° 0 mm 1 mps 741 mmHg 86%
    03:00 +25°C° 0 mm 1 mps 741 mmHg 85%
    04:00 +25°C° 0 mm 1 mps 741 mmHg 83%
    05:00 +26°C° 0 mm 1 mps 741 mmHg 82%
    06:00 +27°C° 0 mm 1 mps 742 mmHg 80%
    07:00 +28°C° 0 mm 1 mps 742 mmHg 78%
    08:00 +28°C° 0.6 mm 1 mps 742 mmHg 80%
    09:00 +29°C° 0.6 mm 2 mps 742 mmHg 81%
    10:00 +29°C° 0.6 mm 2 mps 742 mmHg 83%
    11:00 +30°C° 1.6 mm 2 mps 742 mmHg 83%
    12:00 +30°C° 1.6 mm 1 mps 741 mmHg 83%
    13:00 +30°C° 1.6 mm 1 mps 740 mmHg 84%
    14:00 +30°C° 1.6 mm 1 mps 740 mmHg 84%
    15:00 +28°C° 1.6 mm 0 mps 740 mmHg 84%
    16:00 +28°C° 1.6 mm 0 mps 739 mmHg 85%
    17:00 +26°C° 0.2 mm 0 mps 739 mmHg 87%
    18:00 +27°C° 0.2 mm 1 mps 740 mmHg 90%
    19:00 +26°C° 0.2 mm 1 mps 740 mmHg 92%
    20:00 +26°C° 0.2 mm 1 mps 741 mmHg 92%
    21:00 +25°C° 0.2 mm 1 mps 741 mmHg 92%
    22:00 +25°C° 0.2 mm 1 mps 742 mmHg 92%
    23:00 +25°C° 0.4 mm 1 mps 742 mmHg 93%
    Show more